When you browse on this site, cookies collect data to enhance your experience and personalize the content and advertising you see.
Visit our Privacy Policy to learn more. By continuing to use the site, you agree to this use of cookies and data.
  • en France
  • Liste des pays
  • À 7 jours
  • Température de l'eau
  • Carte satellitaire
  • Carte météo
  • Widgets météo
  • user-avatar
    Se connecter

    Météo par heure à Bük

    Ce jour, 25 Mai, Samedi

    Heure Température Précipitation Vent Pression Humidité
    00:00 +13°C° 0 mm 2 m/s 742 mmHg 75%
    01:00 +14°C° 0 mm 2 m/s 742 mmHg 76%
    02:00 +13°C° 0 mm 2 m/s 742 mmHg 78%
    03:00 +13°C° 0 mm 2 m/s 742 mmHg 79%
    04:00 +13°C° 0 mm 1 m/s 743 mmHg 81%
    05:00 +14°C° 0 mm 1 m/s 743 mmHg 76%
    06:00 +16°C° 0 mm 1 m/s 743 mmHg 72%
    07:00 +19°C° 0 mm 1 m/s 743 mmHg 68%
    08:00 +20°C° 0 mm 1 m/s 743 mmHg 63%
    09:00 +22°C° 0 mm 1 m/s 743 mmHg 58%
    10:00 +23°C° 0 mm 1 m/s 743 mmHg 53%
    11:00 +24°C° 0 mm 1 m/s 743 mmHg 50%
    12:00 +25°C° 0 mm 1 m/s 743 mmHg 48%
    13:00 +24°C° 0 mm 0 m/s 743 mmHg 45%
    14:00 +24°C° 0 mm 0 m/s 742 mmHg 45%
    15:00 +26°C° 0 mm 1 m/s 742 mmHg 45%
    16:00 +26°C° 0 mm 1 m/s 742 mmHg 46%
    17:00 +24°C° 0 mm 1 m/s 742 mmHg 52%
    18:00 +23°C° 0 mm 1 m/s 742 mmHg 58%
    19:00 +21°C° 0 mm 1 m/s 742 mmHg 64%
    20:00 +20°C° 0.9 mm 1 m/s 742 mmHg 69%
    21:00 +19°C° 0.9 mm 1 m/s 742 mmHg 75%
    22:00 +18°C° 0.9 mm 1 m/s 743 mmHg 80%
    23:00 +16°C° 1.2 mm 1 m/s 743 mmHg 83%

    Demain, 26 Mai, Dimanche

    Heure Température Précipitation Vent Pression Humidité
    00:00 +16°C° 1.2 mm 2 m/s 743 mmHg 85%
    01:00 +16°C° 1.2 mm 2 m/s 743 mmHg 88%
    02:00 +15°C° 0.2 mm 1 m/s 743 mmHg 89%
    03:00 +15°C° 0.2 mm 1 m/s 743 mmHg 91%
    04:00 +14°C° 0.2 mm 1 m/s 743 mmHg 92%
    05:00 +15°C° 0 mm 1 m/s 743 mmHg 89%
    06:00 +16°C° 0 mm 1 m/s 743 mmHg 86%
    07:00 +19°C° 0 mm 1 m/s 743 mmHg 83%
    08:00 +20°C° 0 mm 1 m/s 743 mmHg 77%
    09:00 +22°C° 0 mm 1 m/s 743 mmHg 71%
    10:00 +23°C° 0 mm 1 m/s 744 mmHg 66%
    11:00 +24°C° 0 mm 1 m/s 743 mmHg 62%
    12:00 +25°C° 0 mm 2 m/s 743 mmHg 58%
    13:00 +26°C° 0 mm 2 m/s 743 mmHg 55%
    14:00 +26°C° 0 mm 2 m/s 743 mmHg 54%
    15:00 +26°C° 0 mm 2 m/s 743 mmHg 54%
    16:00 +26°C° 0 mm 2 m/s 742 mmHg 53%
    17:00 +25°C° 0.2 mm 2 m/s 742 mmHg 60%
    18:00 +23°C° 0.2 mm 1 m/s 742 mmHg 66%
    19:00 +22°C° 0.2 mm 1 m/s 742 mmHg 73%
    20:00 +21°C° 0.1 mm 1 m/s 742 mmHg 76%
    21:00 +20°C° 0.1 mm 1 m/s 743 mmHg 79%
    22:00 +18°C° 0.1 mm 2 m/s 743 mmHg 83%
    23:00 +17°C° 0 mm 2 m/s 743 mmHg 84%

    Après-demain, 27 Mai, Lundi

    Heure Température Précipitation Vent Pression Humidité
    00:00 +16°C° 0 mm 2 m/s 743 mmHg 86%
    01:00 +16°C° 0 mm 1 m/s 742 mmHg 87%
    02:00 +16°C° 0 mm 1 m/s 742 mmHg 88%
    03:00 +15°C° 0 mm 1 m/s 742 mmHg 88%
    04:00 +15°C° 0 mm 1 m/s 742 mmHg 89%
    05:00 +16°C° 0 mm 1 m/s 742 mmHg 86%
    06:00 +19°C° 0 mm 1 m/s 742 mmHg 83%
    07:00 +19°C° 0 mm 2 m/s 742 mmHg 80%
    08:00 +19°C° 0.2 mm 2 m/s 742 mmHg 79%
    09:00 +20°C° 0.2 mm 2 m/s 742 mmHg 78%
    10:00 +20°C° 0.2 mm 2 m/s 742 mmHg 77%
    11:00 +22°C° 0.1 mm 1 m/s 742 mmHg 72%
    12:00 +23°C° 0.1 mm 1 m/s 742 mmHg 67%
    13:00 +24°C° 0.1 mm 1 m/s 741 mmHg 62%
    14:00 +25°C° 0 mm 1 m/s 741 mmHg 61%
    15:00 +25°C° 0 mm 2 m/s 741 mmHg 60%
    16:00 +26°C° 0 mm 2 m/s 740 mmHg 59%
    17:00 +24°C° 0.5 mm 3 m/s 740 mmHg 69%
    18:00 +21°C° 0.5 mm 3 m/s 740 mmHg 79%
    19:00 +19°C° 0.5 mm 4 m/s 740 mmHg 89%
    20:00 +19°C° 0.2 mm 3 m/s 740 mmHg 91%
    21:00 +18°C° 0.2 mm 3 m/s 739 mmHg 93%
    22:00 +18°C° 0.2 mm 2 m/s 739 mmHg 94%
    23:00 +17°C° 0 mm 2 m/s 739 mmHg 95%

    28 Mai, Mardi

    Heure Température Précipitation Vent Pression Humidité
    00:00 +17°C° 0 mm 3 m/s 739 mmHg 95%
    01:00 +16°C° 0 mm 3 m/s 738 mmHg 96%
    02:00 +16°C° 0 mm 3 m/s 738 mmHg 95%
    03:00 +15°C° 0 mm 2 m/s 738 mmHg 95%
    04:00 +15°C° 0 mm 2 m/s 737 mmHg 95%
    05:00 +16°C° 0 mm 2 m/s 737 mmHg 92%
    06:00 +17°C° 0 mm 2 m/s 737 mmHg 89%
    07:00 +18°C° 0 mm 2 m/s 737 mmHg 85%
    08:00 +19°C° 0.1 mm 2 m/s 737 mmHg 82%
    09:00 +21°C° 0.1 mm 1 m/s 736 mmHg 79%
    10:00 +22°C° 0.1 mm 1 m/s 736 mmHg 76%
    11:00 +23°C° 0.6 mm 2 m/s 735 mmHg 70%
    12:00 +25°C° 0.6 mm 3 m/s 735 mmHg 63%
    13:00 +26°C° 0.6 mm 5 m/s 734 mmHg 57%
    14:00 +25°C° 0.1 mm 5 m/s 734 mmHg 59%
    15:00 +24°C° 0.1 mm 6 m/s 734 mmHg 62%
    16:00 +23°C° 0.1 mm 6 m/s 734 mmHg 64%
    17:00 +22°C° 0 mm 5 m/s 734 mmHg 70%
    18:00 +20°C° 0 mm 4 m/s 734 mmHg 75%
    19:00 +19°C° 0 mm 3 m/s 734 mmHg 80%
    20:00 +18°C° 1 mm 2 m/s 734 mmHg 85%
    21:00 +17°C° 1 mm 2 m/s 735 mmHg 89%
    22:00 +16°C° 1 mm 1 m/s 735 mmHg 94%
    23:00 +16°C° 0.4 mm 2 m/s 735 mmHg 93%

    29 Mai, Mercredi

    Heure Température Précipitation Vent Pression Humidité
    00:00 +15°C° 0.4 mm 2 m/s 736 mmHg 92%
    01:00 +14°C° 0.4 mm 3 m/s 736 mmHg 91%
    02:00 +14°C° 0.1 mm 3 m/s 736 mmHg 91%
    03:00 +14°C° 0.1 mm 3 m/s 737 mmHg 90%
    04:00 +13°C° 0.1 mm 3 m/s 737 mmHg 90%
    05:00 +13°C° 0.1 mm 3 m/s 737 mmHg 89%
    06:00 +13°C° 0.1 mm 3 m/s 738 mmHg 89%
    07:00 +13°C° 0.1 mm 3 m/s 738 mmHg 88%
    08:00 +14°C° 0 mm 3 m/s 739 mmHg 84%
    09:00 +15°C° 0 mm 4 m/s 740 mmHg 80%
    10:00 +17°C° 0 mm 4 m/s 740 mmHg 77%
    11:00 +16°C° 0.1 mm 5 m/s 740 mmHg 75%
    12:00 +16°C° 0.1 mm 5 m/s 741 mmHg 74%
    13:00 +16°C° 0.1 mm 6 m/s 741 mmHg 73%
    14:00 +16°C° 0.1 mm 6 m/s 742 mmHg 74%
    15:00 +16°C° 0.1 mm 6 m/s 742 mmHg 75%
    16:00 +15°C° 0.1 mm 6 m/s 742 mmHg 76%
    17:00 +15°C° 0.4 mm 5 m/s 742 mmHg 81%
    18:00 +14°C° 0.4 mm 5 m/s 743 mmHg 86%
    19:00 +13°C° 0.4 mm 4 m/s 743 mmHg 91%
    20:00 +13°C° 1 mm 4 m/s 744 mmHg 91%
    21:00 +13°C° 1 mm 4 m/s 744 mmHg 92%
    22:00 +12°C° 1 mm 4 m/s 745 mmHg 92%
    23:00 +12°C° 0.4 mm 4 m/s 745 mmHg 92%

    30 Mai, Jeudi

    Heure Température Précipitation Vent Pression Humidité
    00:00 +12°C° 0.4 mm 4 m/s 746 mmHg 92%
    01:00 +12°C° 0.4 mm 4 m/s 746 mmHg 92%
    02:00 +12°C° 0 mm 5 m/s 746 mmHg 92%
    03:00 +12°C° 0 mm 5 m/s 747 mmHg 92%
    04:00 +10°C° 0 mm 5 m/s 747 mmHg 92%
    05:00 +11°C° 0.1 mm 6 m/s 747 mmHg 91%
    06:00 +11°C° 0.1 mm 6 m/s 748 mmHg 89%
    07:00 +11°C° 0.1 mm 7 m/s 748 mmHg 87%
    08:00 +12°C° 0.1 mm 7 m/s 748 mmHg 85%
    09:00 +12°C° 0.1 mm 7 m/s 748 mmHg 82%
    10:00 +13°C° 0.1 mm 8 m/s 749 mmHg 79%
    11:00 +14°C° 0.1 mm 7 m/s 749 mmHg 78%
    12:00 +14°C° 0.1 mm 7 m/s 748 mmHg 77%
    13:00 +14°C° 0.1 mm 6 m/s 748 mmHg 76%
    14:00 +14°C° 0 mm 6 m/s 748 mmHg 74%
    15:00 +15°C° 0 mm 5 m/s 748 mmHg 72%
    16:00 +15°C° 0 mm 5 m/s 748 mmHg 70%
    17:00 +14°C° 0 mm 4 m/s 748 mmHg 74%
    18:00 +13°C° 0 mm 3 m/s 748 mmHg 78%
    19:00 +13°C° 0 mm 2 m/s 748 mmHg 83%
    20:00 +12°C° 0 mm 2 m/s 748 mmHg 84%
    21:00 +10°C° 0 mm 2 m/s 748 mmHg 86%
    22:00 +11°C° 0 mm 1 m/s 748 mmHg 88%
    23:00 +10°C° 0 mm 1 m/s 748 mmHg 88%
    Voir plus